DW2745 Weather Reports


Display with metric or nautical units.
time (UTC)temp
F
wind
direction
speed
MPH
gust
MPH
rain 1hr
in
rain 24hr
in
rain mn
in
humidity
%
barometer
mb
20260504045525 54 229 4.0 8.0 0.00 0.01 0.00 55 1007.4
20260504045025 54 221 3.0 8.0 0.00 0.01 0.00 55 1007.4
20260504044524 54 222 4.0 8.0 0.00 0.01 0.00 55 1007.5
20260504044024 54 225 4.0 8.0 0.00 0.01 0.00 55 1007.4
20260504043526 54 202 4.0 8.0 0.00 0.01 0.00 55 1007.5
20260504043021 54 240 4.0 8.0 0.00 0.01 0.00 55 1007.4
20260504042520 54 186 3.0 7.0 0.00 0.01 0.00 55 1007.3
20260504042019 54 209 3.0 7.0 0.00 0.01 0.00 56 1007.4
20260504041519 54 257 3.0 8.0 0.00 0.01 0.00 55 1007.4
20260504041019 54 202 2.0 7.0 0.00 0.01 0.00 56 1007.3
20260504040519 54 201 3.0 7.0 0.00 0.01 0.00 56 1007.5
20260504040018 54 223 4.0 9.0 0.00 0.01 0.00 56 1007.5
20260504035518 54 215 3.0 9.0 0.00 0.01 0.01 57 1007.5
20260504035020 54 219 3.0 7.0 0.00 0.01 0.01 58 1007.5
20260504034531 53 223 2.0 6.0 0.00 0.01 0.01 59 1007.5
20260504034022 53 209 1.0 6.0 0.00 0.01 0.01 58 1007.6
20260504033525 53 173 1.0 4.0 0.00 0.01 0.01 58 1007.5
20260504033020 53 197 1.0 4.0 0.00 0.01 0.01 58 1007.5
20260504032516 53 211 1.0 4.0 0.00 0.01 0.01 58 1007.6
20260504032016 54 216 1.0 7.0 0.00 0.01 0.01 58 1007.5
20260504031516 54 196 2.0 7.0 0.00 0.01 0.01 59 1007.6
20260504031015 54 196 2.0 7.0 0.00 0.01 0.01 58 1007.6
20260504030515 54 212 3.0 8.0 0.00 0.01 0.01 59 1007.6
20260504030015 53 223 3.0 8.0 0.00 0.01 0.01 60 1007.7
20260504025516 53 244 3.0 8.0 0.00 0.01 0.01 60 1007.7
20260504025015 53 239 3.0 8.0 0.00 0.01 0.01 62 1007.7
20260504024515 53 215 4.0 10.0 0.00 0.01 0.01 63 1007.8
20260504024017 53 241 6.0 11.0 0.00 0.01 0.01 63 1007.8
20260504023514 52 222 6.0 10.0 0.00 0.01 0.01 66 1007.9
20260504023014 51 231 3.0 5.0 0.00 0.01 0.01 69 1008.0
20260504022516 51 185 2.0 5.0 0.00 0.01 0.01 72 1008.0
20260504022014 51 188 2.0 3.0 0.00 0.01 0.01 74 1008.1
20260504021513 50 172 1.0 4.0 0.00 0.01 0.01 75 1008.0
20260504021013 50 173 2.0 5.0 0.00 0.01 0.01 76 1008.0
20260504020513 50 225 2.0 5.0 0.00 0.01 0.01 77 1008.3
20260504020015 50 173 2.0 5.0 0.00 0.01 0.01 78 1008.1
20260504015514 50 191 2.0 5.0 0.00 0.01 0.01 79 1008.1
20260504015017 49 198 0.0 3.0 0.00 0.01 0.01 80 1008.2
20260504014517 49 198 1.0 3.0 0.00 0.01 0.01 81 1008.1
20260504014011 49 207 1.0 6.0 0.00 0.01 0.01 82 1008.1
20260504013512 49 211 2.0 6.0 0.00 0.01 0.01 83 1008.2
20260504013012 49 186 2.0 5.0 0.01 0.01 0.01 84 1008.3
20260504012512 49 186 1.0 4.0 0.01 0.01 0.01 85 1008.4
20260504012011 49 182 1.0 4.0 0.01 0.01 0.01 84 1008.5
20260504011511 49 203 1.0 4.0 0.01 0.01 0.01 84 1008.5
20260504011011 49 202 1.0 5.0 0.01 0.01 0.01 84 1008.5
20260504010511 49 234 2.0 8.0 0.01 0.01 0.01 83 1008.5
20260504010011 49 246 5.0 7.0 0.01 0.01 0.01 83 1008.7
20260504005510 49 241 3.0 8.0 0.01 0.01 0.01 83 1008.6
20260504005010 49 226 4.0 10.0 0.01 0.01 0.01 82 1008.6
20260504004509 50 243 6.0 12.0 0.01 0.01 0.01 81 1008.7
20260504004008 50 238 7.0 15.0 0.01 0.01 0.01 79 1008.8
20260504003509 50 223 10.0 15.0 0.00 0.00 0.00 78 1009.0
20260504003009 51 242 11.0 18.0 0.00 0.00 0.00 76 1008.9
20260504002508 51 267 12.0 18.0 0.00 0.00 0.00 75 1008.9
20260504002009 51 274 12.0 18.0 0.00 0.00 0.00 73 1008.8
20260504001510 52 253 10.0 20.0 0.00 0.00 0.00 72 1008.6
20260504001007 52 247 10.0 18.0 0.00 0.00 0.00 71 1008.6
20260504000510 52 259 13.0 18.0 0.00 0.00 0.00 71 1008.6
20260504000007 52 271 8.0 25.0 0.00 0.00 0.00 69 1008.6
20260503235507 52 239 12.0 25.0 0.00 0.00 0.00 67 1008.7
20260503235007 53 261 14.0 27.0 0.00 0.00 0.00 66 1008.7
20260503234509 53 232 14.0 27.0 0.00 0.00 0.00 63 1008.6
20260503234006 54 236 12.0 23.0 0.00 0.00 0.00 60 1008.6
20260503233606 54 229 11.0 23.0 0.00 0.00 0.00 58 1008.4
20260503233005 55 209 11.0 21.0 0.00 0.00 0.00 56 1008.3
20260503232505 55 254 12.0 24.0 0.00 0.00 0.00 55 1008.3
20260503232005 55 260 12.0 20.0 0.00 0.00 0.00 55 1008.2
20260503231505 55 252 11.0 19.0 0.00 0.00 0.00 54 1008.1
20260503231007 55 226 13.0 21.0 0.00 0.00 0.00 54 1007.9
20260503230504 55 277 13.0 21.0 0.00 0.00 0.00 53 1008.0
20260503230002 53 238 10.0 17.0 0.00 0.00 0.00 58 1007.8
20260503225501 51 247 9.0 15.0 0.00 0.00 0.00 61 1007.7
20260503225102 49 218 2.0 5.0 0.00 0.00 0.00 66 1007.7
20260503224558 49 104 0.0 3.0 0.00 0.00 0.00 70 1007.8
20260503224058 49 104 0.0 2.0 0.00 0.00 0.00 69 1007.8
20260503223557 49 104 1.0 2.0 0.00 0.00 0.00 69 1007.8
20260503223056 48 104 0.0 2.0 0.00 0.00 0.00 68 1007.7
20260503222555 48 104 0.0 6.0 0.00 0.00 0.00 69 1007.8
20260503222055 47 104 2.0 6.0 0.00 0.00 0.00 71 1007.7
20260503221555 47 103 2.0 6.0 0.00 0.00 0.00 69 1007.6
20260503221054 46 50 2.0 6.0 0.00 0.00 0.00 72 1008.3
20260503220554 46 34 2.0 4.0 0.00 0.00 0.00 73 1008.5
20260503220053 46 61 1.0 7.0 0.00 0.00 0.00 73 1008.6
20260503215553 46 67 5.0 7.0 0.00 0.00 0.00 73 1008.9
20260503215053 46 52 2.0 9.0 0.00 0.00 0.00 74 1008.9
20260503214557 46 53 6.0 9.0 0.00 0.00 0.00 73 1008.8
20260503214057 47 53 5.0 6.0 0.00 0.00 0.00 74 1008.7
20260503213553 47 65 4.0 6.0 0.00 0.00 0.00 73 1008.6
20260503213123 47 65 4.0 6.0 0.00 0.00 0.00 71 1008.3
20260503212556 47 73 1.0 4.0 0.00 0.00 0.00 70 1008.3
20260503212056 47 69 2.0 6.0 0.00 0.00 0.00 70 1008.1
20260503211617 48 68 3.0 6.0 0.00 0.00 0.00 69 1008.0
20260503211052 48 60 3.0 6.0 0.00 0.00 0.00 71 1008.1
20260503210551 48 55 3.0 6.0 0.00 0.00 0.00 69 1008.3
20260503210051 48 54 2.0 5.0 0.00 0.00 0.00 68 1008.3
20260503205551 47 56 2.0 6.0 0.00 0.00 0.00 68 1008.2
20260503205050 48 65 3.0 6.0 0.00 0.00 0.00 65 1008.6
20260503204602 48 56 4.0 6.0 0.00 0.00 0.00 68 1008.5
20260503204048 48 63 4.0 6.0 0.00 0.00 0.00 69 1008.4
20260503203548 48 70 3.0 5.0 0.00 0.00 0.00 67 1008.5
20260503203047 48 67 3.0 5.0 0.00 0.00 0.00 69 1008.7
20260503202547 48 60 3.0 5.0 0.00 0.00 0.00 67 1008.8
20260503202048 48 66 3.0 5.0 0.00 0.00 0.00 68 1008.8
20260503201545 47 45 3.0 5.0 0.00 0.00 0.00 68 1008.8
20260503201043 47 48 3.0 5.0 0.00 0.00 0.00 71 1009.0
20260503200542 46 52 3.0 9.0 0.00 0.00 0.00 72 1009.0
20260503200042 46 49 5.0 9.0 0.00 0.00 0.00 68 1009.1
20260503195540 46 43 5.0 9.0 0.00 0.00 0.00 70 1009.1
20260503195040 46 36 6.0 9.0 0.00 0.00 0.00 68 1009.3
20260503194540 46 42 4.0 6.0 0.00 0.00 0.00 67 1009.4
20260503194038 46 55 4.0 7.0 0.00 0.00 0.00 69 1009.4
20260503193537 46 51 5.0 7.0 0.00 0.00 0.00 67 1009.4
20260503193036 45 35 4.0 6.0 0.00 0.00 0.00 68 1009.7
20260503192536 45 46 4.0 6.0 0.00 0.00 0.00 68 1009.7
20260503192035 45 40 3.0 6.0 0.00 0.00 0.00 68 1009.9
20260503191552 45 45 4.0 6.0 0.00 0.00 0.00 67 1010.0
20260503191035 45 49 3.0 5.0 0.00 0.00 0.00 68 1010.0
20260503190534 45 39 3.0 4.0 0.00 0.00 0.00 67 1010.1
20260503190036 45 39 3.0 4.0 0.00 0.00 0.00 66 1010.3
20260503185534 45 36 3.0 4.0 0.00 0.00 0.00 66 1010.4
20260503185034 45 36 2.0 4.0 0.00 0.00 0.00 67 1010.4
20260503184534 44 36 2.0 4.0 0.00 0.00 0.00 68 1010.5
20260503184031 44 36 3.0 4.0 0.00 0.00 0.00 67 1010.5
20260503183531 44 11 2.0 4.0 0.00 0.00 0.00 67 1010.6
20260503183040 44 11 2.0 4.0 0.00 0.00 0.00 69 1010.6
20260503182529 44 11 1.0 3.0 0.00 0.00 0.00 67 1010.8
20260503182030 44 11 2.0 3.0 0.00 0.00 0.00 66 1010.7
20260503181529 44 11 2.0 3.0 0.00 0.00 0.00 65 1010.8
20260503181028 44 11 2.0 3.0 0.00 0.00 0.00 66 1010.9
20260503180528 44 11 1.0 4.0 0.00 0.00 0.00 67 1011.0
20260503180033 44 11 1.0 5.0 0.00 0.00 0.00 68 1011.0
20260503175527 44 11 3.0 5.0 0.00 0.00 0.00 66 1011.0
20260503175027 44 27 3.0 5.0 0.00 0.00 0.00 65 1011.1
20260503174536 44 27 3.0 6.0 0.00 0.00 0.00 65 1011.1
20260503174026 44 27 3.0 6.0 0.00 0.00 0.00 65 1011.1
20260503173526 45 27 4.0 6.0 0.00 0.00 0.00 66 1011.2
20260503173026 45 37 4.0 7.0 0.00 0.00 0.00 65 1011.1
20260503172525 45 34 4.0 7.0 0.00 0.00 0.00 64 1011.1
20260503172025 45 47 4.0 7.0 0.00 0.00 0.00 67 1011.1
20260503171529 45 48 4.0 7.0 0.00 0.00 0.00 66 1011.2
20260503171029 46 46 4.0 7.0 0.00 0.00 0.00 66 1011.1
20260503170525 46 61 3.0 7.0 0.00 0.00 0.00 67 1011.1
20260503150556 44 311 2.0 3.0 0.00 0.00 0.00 65 1012.4
20260503131044 43 279 6.0 9.0 0.00 0.00 0.00 59 1013.2
20260503130544 43 282 7.0 10.0 0.00 0.00 0.00 60 1013.3
20260503110531 38 234 6.0 10.0 0.00 0.00 0.00 80 1013.0
20260503081506 37 205 2.0 4.0 0.00 0.00 0.00 80 1012.9
20260503081005 38 205 2.0 4.0 0.00 0.00 0.00 79 1012.9
20260503080505 38 206 2.0 5.0 0.00 0.00 0.00 79 1012.9
20260503072559 39 217 3.0 8.0 0.00 0.00 0.00 75 1012.8
20260503072058 39 217 4.0 8.0 0.00 0.00 0.00 75 1012.8
20260503071612 39 213 4.0 7.0 0.00 0.00 0.00 75 1012.8
20260503071056 40 205 4.0 8.0 0.00 0.00 0.00 74 1012.8
20260503070556 40 225 5.0 7.0 0.00 0.00 0.00 74 1012.8
20260503070113 40 231 4.0 8.0 0.00 0.00 0.00 74 1012.8
20260503055048 41 235 4.0 8.0 0.00 0.00 0.00 71 1012.9
20260503054556 41 223 4.0 8.0 0.00 0.00 0.00 71 1013.0
20260503054046 41 237 4.0 9.0 0.00 0.00 0.00 71 1012.9
20260503053546 41 221 4.0 9.0 0.00 0.00 0.00 71 1013.0
20260503053045 41 249 4.0 8.0 0.00 0.00 0.00 71 1013.0
20260503052545 42 257 4.0 8.0 0.00 0.00 0.00 72 1013.1
20260503052043 42 224 5.0 9.0 0.00 0.00 0.00 71 1013.1
20260503051548 42 243 5.0 9.0 0.00 0.00 0.00 72 1013.2
20260503051046 42 244 4.0 8.0 0.00 0.00 0.00 72 1013.2
20260503050542 42 244 4.0 8.0 0.00 0.00 0.00 72 1013.3